Find Starlink 5181

NORAD ID: 54070 Int'l Des: 2022-136 Owner: SPXS Country: US Constellation: starlink operational
LEOCIRCULAR

Current View

Loading 3D Globe...

About Starlink 5181

Starlink 5181 (NORAD 54070) is a starlink constellation satellite (v1.5) launched Oct 20, 2022 by SPXS of US. It operates in LEO, CIRCULAR orbit with a mass of 305.00 kg.

About Starlink 5181

Description loading...

Upcoming Passes

Passes for default location (London). Set your location on the main map for personalized predictions.

Altitude History

Loading altitude history...

Two-Line Element Set

1 54070U 22136V 26166.56181545 .00000246 00000-0 33539-4 0 9995
2 54070 53.1607 264.3630 0001033 90.5237 269.5873 15.08826229201621
Epoch: Jun 15, 2026 • Age: 16 hours

Current Status

Altitude 549.2 km
Velocity 7.59 km/s
Sub-Earth Point -29.60°S, 106.33°W
Launch Date Oct 20, 2022
Age 3.6 years
Type internet

Technical Details

Classification Payload
Mass 305.00 kg
Dry Mass 290.00 kg
Total Mass 305.00 kg
Length 0.20 m
Diameter 2.80 m
Span 9.00 m
Shape Box + pan
Manufacturer SPXS
Bus Type Starlink
Phase Status In Orbit
Owner/State SPXS/US

Most Searched